カタログに戻る

ZHANGHENG 1-02

運用中科学SSO
NORAD 64393·PAYLOAD·🇨🇳 China

打ち上げ Jun 14, 2025 から Jiuquan Satellite Launch Center

Loading…

次のパス (今後24時間)

TLE

最新Source: Space-Track

元期: Sep 14, 2026, 15:43 UTC

1 64393U 25128A   26257.65549362  .00000039  00000-0  48477-5 0  9992
2 64393  97.3702  22.4358 0009015 137.7702 222.4229 15.20628902 69532

AllMySatでZHANGHENG 1-02をリアルタイム追跡

Download on the App Store